Kingsville NAS, TX

3:39 PM CDT on October 15, 2019 (GMT -0500)
Kingsville Naval Air Station

Weather History for KNQI - August, 2019

Change the Weather History Date:

Sunday, August 25, 2019

  Actual Average Record
Temperature  
Mean Temperature 90 °F -  
Max Temperature 102 °F 92 °F 105 °F (2010)
Min Temperature 79 °F 72 °F 71 °F (2015)
Cooling Degree Days 24    
Growing Degree Days 40 (Base 50)    
Moisture  
Dew Point 77 °F    
Average Humidity 77    
Maximum Humidity 91    
Minimum Humidity 40    
Precipitation  
Precipitation 0.84 in - - ()
Sea Level Pressure  
Sea Level Pressure 29.80 in    
Wind  
Wind Speed 9 mph (SSE)    
Max Wind Speed 22 mph    
Max Gust Speed 32 mph    
Visibility 9 miles    
Events Rain , Thunderstorm    
Averages and records for this station are not official NWS values.
T = Trace of Precipitation, MM = Missing Value Source: NWS Daily Summary

Daily Weather History Graph

Daily Weather History Graph

Search for Another Location

Airport or City:

Astronomy

Aug. 25, 2019 Rise Set
Actual Time 7:06 AM CDT 7:59 PM CDT
Civil Twilight 6:42 AM CDT 8:23 PM CDT
Nautical Twilight 6:14 AM CDT 8:51 PM CDT
Astronomical Twilight 5:45 AM CDT 9:20 PM CDT
Moon 1:58 AM CDT (8/25) 4:04 PM CDT (8/25)
Length of Visible Light 13h 40m
Length of Day
12h 52m
Waning Crescent, 29% of the Moon is Illuminated
Aug 25
Waning Crescent
Aug 30
New
Sep 5
First Quarter
Sep 13
Full
Sep 21
Last Quarter

Hourly Weather History & Observations

Time (CDT) Temp. Heat Index Dew Point Humidity Pressure Visibility Wind Dir Wind Speed Gust Speed Precip Events Conditions
12:56 AM 82.9 °F 92.8 °F 78.1 °F 85% 29.86 in 10.0 mi ESE 8.1 mph - N/A   Clear
1:56 AM 82.0 °F 91.0 °F 78.1 °F 88% 29.84 in 10.0 mi SE 9.2 mph - N/A   Clear
2:56 AM 82.9 °F 93.8 °F 79.0 °F 88% 29.82 in 10.0 mi SSE 9.2 mph - N/A   Clear
3:56 AM 81.0 °F 88.6 °F 78.1 °F 91% 29.82 in 10.0 mi South 6.9 mph - N/A   Clear
4:56 AM 80.1 °F 85.8 °F 77.0 °F 90% 29.82 in 10.0 mi South 4.6 mph - N/A   Clear
5:56 AM 79.0 °F - 75.9 °F 90% 29.83 in 10.0 mi Calm Calm - N/A   Clear
6:23 AM 79.0 °F - 75.9 °F 90% 29.85 in 9.0 mi Calm Calm - N/A   Mostly Cloudy
6:47 AM 79.0 °F - 75.0 °F 88% 29.85 in 10.0 mi South 4.6 mph - N/A   Scattered Clouds
6:56 AM 79.0 °F - 75.0 °F 88% 29.84 in 10.0 mi South 3.5 mph - N/A   Partly Cloudy
7:56 AM 80.1 °F 85.1 °F 75.0 °F 85% 29.86 in 10.0 mi North - - N/A   Clear
8:56 AM 82.9 °F 90.2 °F 75.0 °F 77% 29.87 in 10.0 mi Calm Calm - N/A   Clear
9:56 AM 90.0 °F 104.5 °F 78.1 °F 68% 29.86 in 9.0 mi South 11.5 mph - N/A   Clear
10:56 AM 93.0 °F 105.3 °F 75.9 °F 57% 29.86 in 10.0 mi South 15.0 mph - N/A   Scattered Clouds
11:56 AM 97.0 °F 107.7 °F 73.9 °F 47% 29.84 in 10.0 mi South 12.7 mph - N/A   Scattered Clouds
12:56 PM 97.0 °F 105.5 °F 72.0 °F 44% 29.82 in 10.0 mi South 11.5 mph - N/A   Scattered Clouds
1:56 PM 100.0 °F 109.3 °F 72.0 °F 40% 29.78 in 10.0 mi SW 12.7 mph - N/A   Scattered Clouds
2:56 PM 97.0 °F 112.7 °F 77.0 °F 53% 29.76 in 10.0 mi SSE 16.1 mph 23.0 mph N/A   Mostly Cloudy
3:24 PM 93.9 °F 108.4 °F 77.0 °F 58% 29.76 in 10.0 mi SSE 16.1 mph 23.0 mph 0.00 in Thunderstorm Thunderstorm
3:56 PM 91.0 °F 102.9 °F 75.9 °F 61% 29.76 in 10.0 mi ESE 20.7 mph 29.9 mph 0.00 in Rain , Thunderstorm Light Thunderstorms and Rain
4:04 PM 90.0 °F 102.5 °F 77.0 °F 65% 29.78 in 10.0 mi East 15.0 mph 26.5 mph 0.00 in Rain , Thunderstorm Light Thunderstorms and Rain
4:10 PM 84.9 °F 90.7 °F 72.0 °F 65% 29.79 in 10.0 mi NNE 12.7 mph 32.2 mph 0.00 in Rain , Thunderstorm Light Thunderstorms and Rain
4:15 PM 84.9 °F 91.4 °F 73.0 °F 67% 29.79 in 1.8 mi NNE 17.3 mph 32.2 mph 0.00 in Rain , Thunderstorm Light Thunderstorms and Rain
4:30 PM 82.0 °F 89.4 °F 75.9 °F 82% 29.76 in 0.8 mi SE 21.9 mph 27.6 mph N/A Rain , Thunderstorm Heavy Thunderstorms and Rain
4:40 PM 82.9 °F 93.8 °F 79.0 °F 88% 29.76 in 5.0 mi SE 18.4 mph 27.6 mph N/A Rain , Thunderstorm Light Thunderstorms and Rain
4:56 PM 82.9 °F 92.8 °F 78.1 °F 85% 29.75 in 8.0 mi SSE 15.0 mph - 0.84 in Thunderstorm Thunderstorm
5:17 PM 82.0 °F 90.2 °F 77.0 °F 85% 29.76 in 9.0 mi SE 12.7 mph - N/A   Mostly Cloudy
5:56 PM 82.9 °F 93.8 °F 79.0 °F 88% 29.73 in 5.0 mi ESE 8.1 mph - N/A   Mostly Cloudy
6:56 PM 84.0 °F 97.3 °F 80.1 °F 88% 29.74 in 4.0 mi ESE 9.2 mph - N/A   Mostly Cloudy
7:56 PM 84.0 °F 96.0 °F 79.0 °F 85% 29.77 in 9.0 mi SSE 17.3 mph 23.0 mph N/A   Overcast
8:56 PM 84.0 °F 94.8 °F 78.1 °F 82% 29.77 in 10.0 mi SSE 11.5 mph - N/A   Overcast
9:56 PM 82.9 °F 92.8 °F 78.1 °F 85% 29.78 in 10.0 mi SSE 9.2 mph - N/A   Clear
10:56 PM 82.0 °F 91.0 °F 78.1 °F 88% 29.80 in 10.0 mi South 8.1 mph - N/A   Clear
11:56 PM 82.0 °F 90.2 °F 77.0 °F 85% 29.80 in 10.0 mi South 6.9 mph - N/A   Clear